TimeEDT,TemperatureF,Dew PointF,Humidity,Sea Level PressureIn,VisibilityMPH,Wind Direction,Wind SpeedMPH,Gust SpeedMPH,PrecipitationIn,Events,Conditions,WindDirDegrees,DateUTC
12:05 AM,75.2,71.6,89,29.83,10.0,ENE,12.7,21.9,N/A,,Clear,60,2012-10-25 04:05:00
12:55 AM,75.9,73.0,91,29.81,10.0,NNE,4.6,-,0.00,,Clear,20,2012-10-25 04:55:00
1:38 AM,77.0,73.4,89,29.81,10.0,ENE,12.7,-,N/A,Rain,Light Rain,60,2012-10-25 05:38:00
1:55 AM,77.2,73.2,88,29.81,10.0,NE,15.0,-,0.00,Rain,Light Rain,50,2012-10-25 05:55:00
2:01 AM,77.0,71.6,83,29.80,10.0,NE,13.8,21.9,N/A,,Partly Cloudy,50,2012-10-25 06:01:00
2:28 AM,77.0,73.4,89,29.78,10.0,NE,16.1,-,N/A,Rain,Light Rain,50,2012-10-25 06:28:00
2:55 AM,75.6,72.1,89,29.77,10.0,NE,12.7,-,0.03,Rain,Light Rain,50,2012-10-25 06:55:00
2:57 AM,75.2,71.6,89,29.76,10.0,NE,10.4,-,N/A,Rain,Light Rain,40,2012-10-25 06:57:00
3:09 AM,75.2,71.6,89,29.76,10.0,NNE,15.0,-,N/A,Rain,Light Rain,30,2012-10-25 07:09:00
3:32 AM,75.2,71.6,89,29.75,10.0,ENE,11.5,-,N/A,Rain,Light Rain,60,2012-10-25 07:32:00
3:40 AM,75.2,71.6,89,29.75,10.0,NE,10.4,-,N/A,Rain,Rain,40,2012-10-25 07:40:00
3:42 AM,75.2,71.6,89,29.75,10.0,NE,10.4,-,N/A,Rain,Light Rain,40,2012-10-25 07:42:00
3:55 AM,74.8,71.1,88,29.75,10.0,NE,13.8,-,0.03,Rain,Light Rain,50,2012-10-25 07:55:00
4:07 AM,75.2,71.6,89,29.75,10.0,NE,12.7,-,N/A,,Scattered Clouds,50,2012-10-25 08:07:00
4:55 AM,76.6,72.1,86,29.74,10.0,ENE,11.5,-,0.00,,Clear,60,2012-10-25 08:55:00
5:29 AM,78.8,71.6,78,29.74,10.0,ENE,15.0,-,N/A,Rain,Light Rain,60,2012-10-25 09:29:00
5:39 AM,77.0,71.6,83,29.74,10.0,ENE,12.7,-,N/A,,Clear,60,2012-10-25 09:39:00
5:55 AM,77.5,72.1,83,29.74,10.0,ENE,15.0,-,0.00,,Clear,60,2012-10-25 09:55:00
6:05 AM,78.8,71.6,78,29.75,10.0,ENE,13.8,19.6,N/A,Rain,Light Rain,70,2012-10-25 10:05:00
6:08 AM,77.0,71.6,83,29.76,6.0,ENE,16.1,-,N/A,Rain,Light Rain,60,2012-10-25 10:08:00
6:11 AM,77.0,71.6,83,29.76,1.8,ENE,20.7,29.9,N/A,Rain,Heavy Rain,60,2012-10-25 10:11:00
6:14 AM,75.2,69.8,83,29.75,1.0,NE,25.3,32.2,N/A,Rain,Heavy Rain,40,2012-10-25 10:14:00
6:15 AM,75.2,69.8,83,29.76,1.0,NE,24.2,32.2,N/A,Rain,Heavy Rain,50,2012-10-25 10:15:00
6:17 AM,75.2,69.8,83,29.76,1.0,NE,23.0,32.2,N/A,Rain,Heavy Rain,50,2012-10-25 10:17:00
6:21 AM,73.4,69.8,88,29.76,1.0,NE,16.1,32.2,N/A,Rain,Heavy Rain,50,2012-10-25 10:21:00
6:22 AM,73.4,68.0,83,29.76,1.2,NE,15.0,32.2,N/A,Rain,Heavy Rain,40,2012-10-25 10:22:00
6:24 AM,73.4,69.8,88,29.76,1.5,NE,17.3,27.6,N/A,Rain,Heavy Rain,40,2012-10-25 10:24:00
6:28 AM,73.4,69.8,88,29.76,2.0,NNE,17.3,-,N/A,Rain,Heavy Rain,30,2012-10-25 10:28:00
6:29 AM,73.4,69.8,88,29.76,2.5,NNE,16.1,-,N/A,Rain,Heavy Rain,30,2012-10-25 10:29:00
6:41 AM,71.6,69.8,94,29.76,10.0,NNE,10.4,-,N/A,Rain,Light Rain,20,2012-10-25 10:41:00
6:44 AM,71.6,69.8,94,29.76,10.0,NNE,9.2,-,N/A,Rain,Light Rain,30,2012-10-25 10:44:00
6:48 AM,73.4,69.8,88,29.76,9.0,NE,9.2,-,N/A,Rain,Rain,40,2012-10-25 10:48:00
6:55 AM,72.7,70.7,93,29.76,9.0,NE,9.2,-,0.89,Rain,Rain,40,2012-10-25 10:55:00
6:56 AM,73.4,71.6,94,29.75,10.0,NE,8.1,-,N/A,Rain,Rain,40,2012-10-25 10:56:00
7:03 AM,73.4,71.6,94,29.75,10.0,NE,9.2,-,N/A,Rain,Light Rain,40,2012-10-25 11:03:00
7:26 AM,75.2,73.4,94,29.75,10.0,NNE,10.4,-,N/A,,Clear,30,2012-10-25 11:26:00
7:27 AM,75.2,73.4,94,29.75,10.0,NNE,11.5,-,N/A,,Light Drizzle,30,2012-10-25 11:27:00
7:28 AM,75.2,73.4,94,29.75,10.0,NNE,11.5,-,N/A,,Clear,30,2012-10-25 11:28:00
7:29 AM,75.2,73.4,94,29.75,10.0,NNE,10.4,-,N/A,,Light Drizzle,30,2012-10-25 11:29:00
7:55 AM,75.6,73.8,94,29.75,10.0,NE,13.8,-,0.03,Rain,Light Rain,40,2012-10-25 11:55:00
8:03 AM,75.2,73.4,94,29.75,10.0,NE,12.7,-,N/A,,Clear,40,2012-10-25 12:03:00
8:08 AM,75.2,73.4,94,29.75,10.0,NE,12.7,-,N/A,Rain,Light Rain,40,2012-10-25 12:08:00
8:55 AM,76.5,72.7,88,29.77,10.0,ENE,18.4,-,0.00,Rain,Light Rain,70,2012-10-25 12:55:00
9:20 AM,73.4,71.6,94,29.79,6.0,ENE,18.4,26.5,N/A,Rain,Light Rain,70,2012-10-25 13:20:00
9:35 AM,73.4,69.8,88,29.80,4.0,ENE,15.0,23.0,N/A,Rain,Light Rain,70,2012-10-25 13:35:00
9:55 AM,73.6,71.1,92,29.79,5.0,ENE,13.8,-,0.05,Rain,Light Rain,70,2012-10-25 13:55:00
10:09 AM,75.2,73.4,94,29.78,10.0,NE,13.8,-,N/A,Rain,Light Rain,50,2012-10-25 14:09:00
10:28 AM,77.0,73.4,89,29.78,10.0,NE,17.3,-,N/A,,Overcast,50,2012-10-25 14:28:00
10:55 AM,77.5,73.0,86,29.77,10.0,NE,21.9,27.6,0.02,,Light Drizzle,40,2012-10-25 14:55:00
11:03 AM,78.8,73.4,83,29.77,10.0,NE,20.7,-,N/A,,Overcast,40,2012-10-25 15:03:00
11:47 AM,78.8,71.6,78,29.75,10.0,NE,21.9,26.5,N/A,,Light Drizzle,40,2012-10-25 15:47:00
11:59 AM,79.5,70.5,74,29.75,10.0,NE,23.0,29.9,0.00,,Light Drizzle,40,2012-10-25 15:59:00
12:42 PM,80.6,71.6,74,29.73,10.0,NE,23.0,40.3,N/A,,Clear,50,2012-10-25 16:42:00
12:55 PM,80.2,72.0,76,29.73,10.0,NE,18.4,27.6,0.00,,Overcast,40,2012-10-25 16:55:00
1:24 PM,80.6,71.6,74,29.72,0.5,ENE,33.4,41.4,N/A,Rain,Light Rain,60,2012-10-25 17:24:00
1:28 PM,77.0,69.8,78,29.72,1.0,NE,26.5,41.4,N/A,Rain,Heavy Rain,50,2012-10-25 17:28:00
1:32 PM,75.2,69.8,83,29.72,4.0,NE,18.4,41.4,N/A,Rain,Rain,50,2012-10-25 17:32:00
1:55 PM,74.5,71.4,90,29.70,10.0,NNE,24.2,29.9,0.15,Rain,Light Rain,30,2012-10-25 17:55:00
2:44 PM,78.8,71.6,78,29.68,6.0,NE,21.9,31.1,N/A,Rain,Light Rain,40,2012-10-25 18:44:00
2:55 PM,77.2,71.1,81,29.68,4.0,ENE,18.4,31.1,0.03,Rain,Rain,60,2012-10-25 18:55:00
3:00 PM,75.2,71.6,89,29.69,1.5,NE,17.3,25.3,N/A,Rain,Heavy Rain,50,2012-10-25 19:00:00
3:03 PM,75.2,71.6,89,29.68,2.0,NNE,19.6,26.5,N/A,Rain,Heavy Rain,30,2012-10-25 19:03:00
3:11 PM,75.2,71.6,89,29.67,2.0,NNE,20.7,29.9,N/A,Rain,Light Rain,20,2012-10-25 19:11:00
3:15 PM,75.2,71.6,89,29.67,2.0,NNE,19.6,29.9,N/A,Rain,Light Rain,30,2012-10-25 19:15:00
3:32 PM,75.2,69.8,83,29.66,0.8,NE,35.7,51.8,N/A,Rain,Heavy Rain,40,2012-10-25 19:32:00
3:38 PM,71.6,68.0,88,29.68,3.0,NNE,27.6,51.8,N/A,Rain,Heavy Rain,30,2012-10-25 19:38:00
3:55 PM,72.1,68.0,87,29.67,3.0,NE,24.2,35.7,0.25,Rain,Rain,40,2012-10-25 19:55:00
4:30 PM,75.2,71.6,89,29.66,3.0,NE,17.3,-,N/A,Rain,Heavy Rain,40,2012-10-25 20:30:00
4:34 PM,75.2,71.6,89,29.66,2.5,NNE,31.1,39.1,N/A,Rain,Heavy Rain,30,2012-10-25 20:34:00
4:37 PM,73.4,69.8,88,29.66,1.8,NE,27.6,39.1,N/A,Rain,Heavy Rain,40,2012-10-25 20:37:00
4:44 PM,73.4,69.8,88,29.66,2.0,NE,40.3,46.0,N/A,Rain,Heavy Rain,40,2012-10-25 20:44:00
4:58 PM,71.6,68.0,88,29.65,4.0,NE,32.2,42.6,N/A,Rain,Heavy Rain,40,2012-10-25 20:58:00
4:59 PM,71.6,68.0,88,29.65,4.0,NE,31.1,42.6,N/A,Rain,Heavy Rain,40,2012-10-25 20:59:00
5:13 PM,73.4,69.8,88,29.65,9.0,NE,26.5,39.1,N/A,Rain,Light Rain,40,2012-10-25 21:13:00
5:55 PM,72.3,69.3,90,29.67,10.0,NNE,29.9,41.4,0.07,Rain,Light Rain,30,2012-10-25 21:55:00
6:22 PM,73.4,69.8,88,29.70,5.0,NNE,19.6,28.8,N/A,Rain,Light Rain,20,2012-10-25 22:22:00
6:55 PM,70.9,67.6,89,29.69,8.0,NNE,20.7,28.8,0.07,Rain,Rain,20,2012-10-25 22:55:00
7:32 PM,71.6,66.2,83,29.68,10.0,NNE,32.2,44.9,N/A,Rain,Light Rain,30,2012-10-25 23:32:00
7:55 PM,70.7,64.6,81,29.69,10.0,NNE,26.5,40.3,0.05,Rain,Light Rain,20,2012-10-25 23:55:00
8:24 PM,73.4,64.4,73,29.67,10.0,NNE,23.0,34.5,N/A,,Mostly Cloudy,20,2012-10-26 00:24:00
8:38 PM,73.4,64.4,73,29.67,10.0,NNE,16.1,-,N/A,Rain,Light Rain,20,2012-10-26 00:38:00
8:55 PM,73.2,65.1,76,29.67,10.0,North,12.7,-,0.00,Rain,Light Rain,10,2012-10-26 00:55:00
9:55 PM,72.3,68.2,87,29.66,10.0,NNW,16.1,-,0.01,Rain,Light Rain,340,2012-10-26 01:55:00
10:55 PM,73.2,70.3,91,29.65,10.0,NNW,18.4,-,0.01,Rain,Light Rain,340,2012-10-26 02:55:00
11:38 PM,73.4,69.8,88,29.65,8.0,NNE,10.4,-,N/A,Rain,Light Rain,30,2012-10-26 03:38:00
11:55 PM,73.0,70.7,92,29.65,10.0,North,13.8,-,0.05,Rain,Light Rain,350,2012-10-26 03:55:00